Location: Dvur Kralove nad Labem
(50.4330°N, 15.8170°E)
Time: 19:38:32
(UTC+01:00)

ISS - Pass Details

Date: 28 October 2019
Orbit: 412 x 421 km, 51.6° (Epoch: 15 November)

Event Time Altitude Azimuth Distance (km) Brightness Sun altitude
Exits shadow 05:43:04 - 239° (WSW) 1,665 -1.2 -9.6°
Reaches altitude 10° 05:43:28 10° 238° (WSW) 1,505 -1.4 -9.5°
Maximum altitude 05:46:48 61° 157° (SSE) 484 -3.3 -9.0°
Drops below altitude 10° 05:50:09 10° 77° (ENE) 1,507 0.3 -8.5°
Sets 05:52:16 0° 74° (ENE) 2,372 1.4 -8.2°
